Flag for Brazil Weather past 2 weeks in Cruzeiro do Sul, Acre, Brazil

Now
75 °F

Thunderstorms. Partly sunny.


Feels Like: 74 °F
Forecast: N/A
Wind: 5 mph from Northwest

Location: Cruzeiro Do Sul Airport

Current Time: Sep 4, 2015 at 6:09:43 PM

Latest Report: Sep 4, 2015 at 5:00 PM


Visibility: N/A

Pressure: 29.86 "Hg

Humidity: 94%

Dew point: 73 °F

Location of Cruzeiro do SulLocation

Historic Weather in Cruzeiro do Sul — Graph

°F

Cruzeiro do Sul temperature yesterday

Maximum temperature yesterday: 95 °F (at 1:00 PM)
Minimum temperature yesterday: 73 °F (at 12:00 AM)
Average temperature yesterday: 86 °F

Past Weeks' High & Low Weather Summary

 TemperatureHumidityPressure
High99 °F (Aug 22, 2:00 PM)100% (Aug 21, 12:00 AM)30.12 "Hg (Aug 21, 12:00 AM)
Low43 °F (Sep 4, 3:00 PM)37% (Aug 23, 2:00 PM)29.77 "Hg (Aug 22, 5:00 PM)
Average82 °F78%29.90 "Hg
* Reported Aug 20 5:00 PM — Sep 4 5:00 PM, Cruzeiro do Sul, Weather by CustomWeather, © 2015

Note: Actual official high and low records may vary slightly from our data, if they occured in-between our weather recording intervals... More about our weather records

Advertising

Cruzeiro do Sul weather history for previous 24 hours

 ConditionsComfort  
Time TempWeatherWind HumidityBarometerVisibility
5:00 PM
Fri, Sep 4
75 °FThunderstorms. Partly sunny.5 mph94%29.86 "HgN/A
4:00 PM77 °FThunderstorms. More clouds than sun.9 mph89%29.86 "HgN/A
3:00 PM43 °FThunderstorms. Broken clouds.5 mph100%29.83 "Hg3 mi
2:00 PM81 °FThunderstorms. Partly sunny.8 mph79%29.86 "HgN/A
1:00 PM90 °FBroken clouds.2 mph63%29.89 "HgN/A
12:00 PM93 °FBroken clouds.5 mph59%29.95 "HgN/A
11:00 AM90 °FSunny.No wind67%29.98 "Hg10 mi
10:00 AM86 °FSunny.3 mph70%29.98 "Hg10 mi
9:00 AM86 °FSunny.5 mph75%29.98 "Hg10 mi
8:00 AM79 °FSunny.3 mph89%29.98 "Hg10 mi
12:45 AM77 °FPartly cloudy.5 mph89%29.92 "HgN/A
12:00 AM79 °FPartly cloudy.3 mph89%29.92 "HgN/A
11:00 PM
Thu, Sep 3
79 °FPartly cloudy.5 mph94%29.92 "HgN/A
10:00 PM79 °FPartly cloudy.2 mph94%29.92 "HgN/A
9:00 PM81 °FThunderstorms. Passing clouds.1 mph89%29.89 "HgN/A
8:00 PM81 °FThunderstorms. Partly cloudy.5 mph89%29.89 "HgN/A
7:00 PM82 °FPartly cloudy.No wind89%29.86 "HgN/A
6:00 PM84 °FBroken clouds.No wind79%29.80 "HgN/A
Weather by CustomWeather, © 2015

See weather overviewHow to use our weather pages